User: anonymous   Login
Location: Bannatyne
(13.0833°N, 59.5333°W)
Time: 17:28:30
(UTC+00:00)
Language:

Tiros 1 despin weight - Orbit

View from above orbital plane
View from above orbital plane
View from above satellite
View from above satellite

Ground track
Ground track

The orbit data is extracted from the following two-line orbital elements,

1   115U 60002D   20021.69184020 -.00000095  00000-0  15799-4 0  9990
2   115  48.1660 264.7316 0035041 317.6183  42.2024 14.83527569191033
Epoch (UTC): 21 January 2020 16:36:14
Eccentricity: 0.0035041
inclination: 48.1660°
perigee height: 594 km
apogee height: 643 km
right ascension of ascending node: 264.7316°
argument of perigee: 317.6183°
revolutions per day: 14.83527569
mean anomaly at epoch: 42.2024°
orbit number at epoch: 19103

The dashed part of the orbit path shows where the satellite is in the earth's shadow,  

DLR